This demonstration page uses our WeatherBlox Daily Observations layout. Learn more.

Left ArrowRight Arrow

34.16533, -84.80231

Hourly Observations for March 3, 2021

Temp ( °F °C ) Dew Point ( °F °C ) Humidity (%) Winds ( mph kmh ) Pressure ( in mb ) Visibility ( mi km ) Precip ( " mm )
12:53 am 00:53 Cloudy 42 5.6 37 2.8 82 82 Calm 30.09 1019 10 16 0.02 0.51
1:53 am 01:53 Cloudy 42 5.6 36 2.2 79 79 Calm 30.08 1019 10 16 0.00 0.00
2:53 am 02:53 Mostly Cloudy 41 5 36 2.2 82 82 Calm 30.08 1019 10 16 0.00 0.00
3:53 am 03:53 Cloudy 41 5 38 3.3 89 89 Calm 30.04 1017 10 16 0.00 0.00
4:53 am 04:53 Cloudy 42 5.6 37 2.8 82 82 N 3 6 30.05 1018 10 16 0.00 0.00
5:53 am 05:53 Cloudy 41 5 38 3.3 89 89 Calm 30.07 1018 10 16 0.00 0.00
6:53 am 06:53 Cloudy 41 5 37 2.8 86 86 Calm 30.07 1018 10 16 0.00 0.00
7:53 am 07:53 Sunny 42 5.6 37 2.8 82 82 Calm 30.09 1019 10 16 0.00 0.00
8:53 am 08:53 Sunny 46 7.8 37 2.8 71 71 VRB 3 6 30.10 1019 10 16 0.00 0.00
9:53 am 09:53 Sunny 51 10.6 37 2.8 59 59 VRB 5 7 30.09 1019 10 16 0.00 0.00
10:53 am 10:53 Sunny 56 13.3 35 1.7 46 46 N 9 15 30.08 1019 10 16 0.00 0.00
12:53 pm 12:53 Sunny 60 15.6 32 0 35 35 N 12 19 30.06 1018 10 16 0.00 0.00
1:53 pm 13:53 Sunny 63 17.2 31 -0.6 30 30 N 8 13 30.03 1017 10 16 0.00 0.00
2:53 pm 14:53 Sunny 65 18.3 23 -5 20 20 VRB 7 11 30.01 1016 10 16 0.00 0.00
3:53 pm 15:53 Sunny 65 18.3 27 -2.8 24 24 VRB 7 11 30.01 1016 10 16 0.00 0.00
4:53 pm 16:53 Sunny 66 18.9 27 -2.8 23 23 NNW 6 9 30.01 1016 10 16 0.00 0.00
5:53 pm 17:53 Sunny 62 16.7 25 -3.9 24 24 Calm 30.02 1017 10 16 0.00 0.00
6:53 pm 18:53 Clear 56 13.3 27 -2.8 33 33 Calm 30.04 1017 10 16 0.00 0.00
7:53 pm 19:53 Clear 49 9.4 31 -0.6 50 50 Calm 30.05 1018 10 16 0.00 0.00
8:53 pm 20:53 Clear 47 8.3 30 -1.1 52 52 Calm 30.06 1018 10 16 0.00 0.00
9:53 pm 21:53 Clear 43 6.1 32 0 65 65 Calm 30.05 1018 10 16 0.00 0.00
10:53 pm 22:53 Clear 44 6.7 32 0 63 63 WSW 3 6 30.07 1018 10 16 0.00 0.00
11:53 pm 23:53 Clear 44 6.7 32 0 63 63 Calm 30.08 1019 10 16 0.00 0.00

Powered by AerisWeather